AA2YS Weather Reports


time (UTC)temp
C
wind
direction
speed
KPH
gust
KPH
rain 1hr
cm
rain 24hr
cm
rain mn
cm
humidity
%
barometer
mb
20260504050540 10 0.0 0.0 0.00 0.00 0.00 62 1008.2
20260504045520 11 0.0 0.0 0.00 0.00 0.00 61 1008.3
20260504044520 11 0.0 0.0 0.00 0.00 0.00 60 1008.3
20260504043519 11 0.0 4.8 0.00 0.00 0.00 59 1008.3
20260504042519 11 0.0 0.0 0.00 0.00 0.00 58 1008.2
20260504041539 11 0.0 0.0 0.00 0.00 0.00 58 1008.3
20260504040540 11 0.0 0.0 0.00 0.00 0.00 58 1008.3
20260504035539 11 0.0 1.6 0.00 0.00 0.00 59 1008.2
20260504034518 11 0.0 1.6 0.00 0.00 0.00 59 1008.2
20260504033519 11 0.0 4.8 0.00 0.00 0.00 62 1008.2
20260504032519 12 0.0 4.8 0.00 0.00 0.00 61 1008.2
20260504031518 12 0.0 0.0 0.00 0.00 0.00 61 1008.3
20260504030519 12 0.0 0.0 0.00 0.00 0.00 60 1008.3
20260504025518 12 0.0 0.0 0.00 0.00 0.00 60 1008.3
20260504024518 12 0.0 3.2 0.00 0.00 0.00 58 1008.4
20260504023518 12 0.0 0.0 0.00 0.00 0.00 58 1008.4
20260504022518 12 0.0 6.4 0.00 0.00 0.00 58 1008.5
20260504021518 12 0.0 0.0 0.00 0.00 0.00 58 1008.6
20260504020519 11 225 1.6 6.4 0.00 0.00 0.00 59 1008.6
20260504015518 11 248 3.2 9.7 0.00 0.00 0.00 60 1008.4
20260504014538 11 270 1.6 11.3 0.00 0.00 0.00 64 1008.5
20260504013518 11 0.0 0.0 0.00 0.00 0.00 67 1008.4
20260504012518 11 0.0 0.0 0.00 0.00 0.00 66 1008.6
20260504011518 12 0.0 0.0 0.00 0.00 0.00 66 1008.8
20260504010519 12 0.0 0.0 0.00 0.00 0.00 65 1009.1
20260504005539 12 0.0 1.6 0.00 0.00 0.00 63 1008.7
20260504004519 12 248 1.6 6.4 0.00 0.00 0.00 63 1008.8
20260504003519 12 0.0 3.2 0.00 0.00 0.00 64 1009.1
20260504002518 12 0.0 4.8 0.00 0.00 0.00 62 1009.3
20260504001538 12 293 1.6 6.4 0.00 0.00 0.00 61 1009.3
20260504000518 12 225 4.8 20.9 0.00 0.00 0.00 59 1009.2
20260503235519 13 248 1.6 8.0 0.00 0.00 0.00 57 1009.0
20260503234518 13 203 4.8 14.5 0.00 0.00 0.00 55 1009.0
20260503233639 13 225 6.4 24.1 0.00 0.00 0.00 54 1009.1
20260503232519 13 225 6.4 25.7 0.00 0.00 0.00 51 1009.0
20260503231518 13 248 8.0 20.9 0.00 0.00 0.00 48 1008.8
20260503230518 13 225 9.7 25.7 0.00 0.00 0.00 47 1008.5
20260503225518 14 225 6.4 14.5 0.00 0.00 0.00 45 1008.4
20260503224518 14 248 4.8 16.1 0.00 0.00 0.00 45 1008.4
20260503223519 14 225 4.8 17.7 0.00 0.00 0.00 44 1008.4
20260503222518 15 225 6.4 19.3 0.00 0.00 0.00 41 1008.4
20260503221518 15 225 4.8 11.3 0.00 0.00 0.00 40 1008.4
20260503220518 15 203 4.8 12.9 0.00 0.00 0.00 43 1008.5
20260503215518 15 225 3.2 9.7 0.00 0.03 0.00 42 1008.7
20260503214518 15 225 4.8 12.9 0.00 0.03 0.00 41 1008.7
20260503213518 15 293 1.6 6.4 0.00 0.03 0.00 42 1008.6
20260503212518 15 270 4.8 11.3 0.00 0.03 0.00 39 1008.6
20260503211518 16 158 4.8 11.3 0.00 0.03 0.00 40 1008.4
20260503210519 16 225 4.8 9.7 0.00 0.03 0.00 39 1008.4
20260503205519 16 248 6.4 14.5 0.00 0.05 0.00 38 1008.4
20260503204541 16 248 3.2 9.7 0.00 0.08 0.00 38 1008.4
20260503203519 16 225 4.8 19.3 0.00 0.08 0.00 39 1008.5
20260503202518 16 225 4.8 11.3 0.00 0.08 0.00 38 1008.8
20260503201519 15 225 4.8 11.3 0.00 0.08 0.00 39 1009.0
20260503200539 15 180 3.2 11.3 0.00 0.08 0.00 37 1009.0
20260503195518 15 225 4.8 14.5 0.00 0.08 0.00 38 1009.4
20260503194521 15 203 1.6 8.0 0.00 0.08 0.00 38 1009.5
20260503193520 15 180 3.2 12.9 0.00 0.08 0.00 39 1009.7
20260503192519 15 225 3.2 8.0 0.00 0.08 0.00 39 1009.9
20260503191522 15 225 4.8 12.9 0.00 0.08 0.00 39 1010.0
20260503190519 15 225 6.4 19.3 0.00 0.08 0.00 36 1010.2
20260503185521 15 248 3.2 8.0 0.00 0.08 0.00 40 1010.5
20260503184518 15 225 8.0 19.3 0.00 0.08 0.00 36 1010.6
20260503183538 15 248 4.8 12.9 0.00 0.08 0.00 38 1010.7
20260503182540 15 180 1.6 8.0 0.00 0.08 0.00 40 1010.8
20260503181518 14 225 8.0 17.7 0.00 0.08 0.00 41 1011.0
20260503180522 14 248 8.0 25.7 0.00 0.08 0.00 42 1011.0
20260503175521 14 180 1.6 8.0 0.00 0.08 0.00 43 1010.9
20260503174539 14 248 4.8 11.3 0.00 0.08 0.00 42 1011.1
20260503173521 15 203 4.8 12.9 0.00 0.08 0.00 46 1011.1
20260503172522 13 293 3.2 12.9 0.00 0.08 0.00 42 1011.2
20260503171518 15 225 4.8 9.7 0.00 0.08 0.00 43 1011.2
20260503170539 15 203 6.4 14.5 0.00 0.08 0.00 44 1011.4
20260503150519 11 248 1.6 8.0 0.00 0.08 0.00 56 1012.6
20260503130520 5 0.0 6.4 0.00 0.08 0.00 69 1013.7
20260503110518 0 0.0 0.0 0.00 0.08 0.00 87 1013.8
20260503081619 2 0.0 0.0 0.00 0.08 0.00 78 1013.3
20260503080518 2 0.0 0.0 0.00 0.08 0.00 77 1013.4
20260503072519 3 0.0 0.0 0.00 0.08 0.00 76 1013.4
20260503071518 3 0.0 0.0 0.00 0.08 0.00 75 1013.4
20260503070518 3 0.0 0.0 0.00 0.08 0.00 75 1013.4